Weather History for Fort Knox, KY

Change the Weather History Date:

Saturday, August 17, 2013

  Actual Average Record
Temperature  
Mean Temperature 72 °F -  
Max Temperature 82 °F 83 °F 96 °F (1999)
Min Temperature 64 °F 63 °F 55 °F (2004)
Cooling Degree Days 8    
Growing Degree Days 22 (Base 50)    
Moisture  
Dew Point 62 °F    
Average Humidity 70    
Maximum Humidity 90    
Minimum Humidity 57    
Precipitation  
Precipitation 0.04 in - - ()
Sea Level Pressure  
Sea Level Pressure 30.11 in    
Wind  
Wind Speed 5 mph (NE)    
Max Wind Speed 14 mph    
Max Gust Speed 22 mph    
Visibility 10 miles    
Events Rain , Thunderstorm    
Averages and records for this station are not official NWS values.
T = Trace of Precipitation, MM = Missing Value Source: NWS Daily Summary

Daily Weather History Graph

Daily Weather History Graph

Search for Another Location

Airport:

Trip Planner

Search our weather history database for the weather conditions in past years. The results will help you decide how hot, cold, wet, or windy it might be!

Date:

Astronomy

Aug. 17, 2013 Rise Set
Actual Time 7:01 AM EDT 8:33 PM EDT
Civil Twilight 6:33 AM EDT 9:01 PM EDT
Nautical Twilight 5:59 AM EDT 9:35 PM EDT
Astronomical Twilight 5:24 AM EDT 10:10 PM EDT
Moon 5:47 PM EDT (8/17) 3:05 AM EDT (8/17)
Length of Visible Light 14h 28m
Length of Day
13h 32m
Waxing Gibbous, 84% of the Moon is Illuminated
Aug 17
Waxing Gibbous
Aug 20
Full
Aug 28
Last Quarter
Sep 5
New
Sep 12
First Quarter

Hourly Weather History & Observations

Time (EDT) Temp. Heat Index Dew Point Humidity Pressure Visibility Wind Dir Wind Speed Gust Speed Precip Events Conditions
12:58 AM 69.8 °F - 57.2 °F 64% 30.12 in 10.0 mi ENE 5.8 mph - N/A   Overcast
1:58 AM 67.8 °F - 56.8 °F 68% 30.12 in 10.0 mi NE 5.8 mph - N/A   Partly Cloudy
2:58 AM 66.4 °F - 56.5 °F 70% 30.10 in 10.0 mi NE 4.6 mph - N/A   Clear
3:58 AM 66.2 °F - 56.5 °F 71% 30.10 in 10.0 mi NE 3.5 mph - N/A   Clear
4:58 AM 65.1 °F - 57.0 °F 75% 30.11 in 10.0 mi NNE 6.9 mph - N/A   Mostly Cloudy
5:58 AM 64.9 °F - 57.4 °F 76% 30.11 in 10.0 mi NE 4.6 mph - N/A   Mostly Cloudy
6:58 AM 65.3 °F - 57.6 °F 76% 30.12 in 10.0 mi NE 5.8 mph - N/A   Overcast
7:58 AM 65.1 °F - 58.5 °F 79% 30.14 in 10.0 mi SW 5.8 mph - N/A   Overcast
8:58 AM 64.8 °F - 60.1 °F 85% 30.16 in 10.0 mi Calm Calm - N/A   Scattered Clouds
9:58 AM 66.7 °F - 60.1 °F 79% 30.15 in 10.0 mi North 5.8 mph - N/A   Mostly Cloudy
10:58 AM 70.2 °F - 60.6 °F 72% 30.16 in 10.0 mi Variable 1.2 mph - N/A   Overcast
11:58 AM 73.2 °F - 62.1 °F 68% 30.14 in 10.0 mi Variable 4.6 mph - N/A   Overcast
12:58 PM 76.6 °F - 64.2 °F 65% 30.14 in 10.0 mi Variable 3.5 mph - N/A   Mostly Cloudy
1:56 PM 78.8 °F - 64.4 °F 61% 30.12 in 10.0 mi ENE 6.9 mph - N/A Rain Light Rain
1:58 PM 78.8 °F - 64.4 °F 61% 30.12 in 10.0 mi NE 5.8 mph - N/A Rain Light Rain
2:09 PM 80.6 °F 82.3 °F 64.4 °F 58% 30.12 in 10.0 mi NE 5.8 mph - N/A   Clear
2:10 PM 80.6 °F 82.3 °F 64.4 °F 58% 30.12 in 10.0 mi ENE 2.3 mph - N/A   Light Drizzle
2:11 PM 80.6 °F 82.3 °F 64.4 °F 58% 30.12 in 10.0 mi ENE 4.6 mph - N/A   Light Drizzle
2:52 PM 80.6 °F 82.3 °F 64.4 °F 58% 30.11 in 10.0 mi ENE 8.1 mph - N/A Rain Light Rain
2:54 PM 80.6 °F 82.3 °F 64.4 °F 58% 30.11 in 10.0 mi NE 8.1 mph - N/A   Partly Cloudy
2:58 PM 81.0 °F 82.6 °F 64.6 °F 57% 30.10 in 10.0 mi NE 8.1 mph - 0.00 in   Scattered Clouds
3:56 PM 80.2 °F 81.9 °F 64.4 °F 58% 30.09 in 10.0 mi NE 6.9 mph - N/A   Mostly Cloudy
4:55 PM 81.5 °F 83.4 °F 65.3 °F 58% 30.07 in 10.0 mi NE 8.1 mph - N/A   Partly Cloudy
5:55 PM 79.3 °F - 63.5 °F 58% 30.07 in 10.0 mi NE 8.1 mph - N/A   Mostly Cloudy
6:55 PM 77.2 °F - 65.5 °F 67% 30.09 in 10.0 mi North 4.6 mph - N/A   Scattered Clouds
7:55 PM 75.0 °F - 64.9 °F 71% 30.07 in 10.0 mi NNE 3.5 mph - N/A Rain Light Rain
8:55 PM 71.4 °F - 64.9 °F 80% 30.09 in 10.0 mi NNE 5.8 mph - N/A Thunderstorm Partly Cloudy
9:13 PM 73.4 °F - 64.4 °F 73% 30.10 in 10.0 mi East 13.8 mph 21.9 mph N/A Rain , Thunderstorm Light Rain
9:37 PM 69.8 °F - 66.2 °F 88% 30.10 in 7.0 mi NE 8.1 mph - N/A   Overcast
9:56 PM 69.8 °F - 66.2 °F 88% 30.10 in 10.0 mi ENE 3.5 mph - N/A   Scattered Clouds
10:55 PM 68.7 °F - 65.8 °F 90% 30.10 in 10.0 mi East 4.6 mph - N/A   Mostly Cloudy
11:58 PM 67.3 °F - 64.2 °F 90% 30.11 in 10.0 mi ENE 4.6 mph - N/A   Clear